Tracking 25723 objects as of 27-Jun-2022
HD Live streaming from Space Station
objects crossing your sky now

TITAN 4B CENTAUR R/B

Track TITAN 4B CENTAUR R/B now!
10-day predictions


NORAD ID: 25725
Int'l Code: 1999-023B
Perigee: 713.8 km
Apogee: 5,153.6 km
Inclination: 28.3 °
Period: 148.9 minutes
Semi major axis: 9304 km
RCS: Unknown
Launch date: April 30, 1999
Source: United States (US)
Launch site: AIR FORCE EASTERN TEST RANGE (AFETR)

Note: This is a ROCKET BODY
aabbcc
Your satellite tracking list
Your tracking list is empty




NASA's NSSDC Master Catalog

Two Line Element Set (TLE):
1 25725U 99023B   22177.77479961 -.00000015  00000-0 -10987-3 0  9999
2 25725  28.3260 334.9912 2385830 343.6838   9.8204  9.67275073116422
Source of the keplerian elements: McCants